Wind_Speed
42 42 42 43 47 49 51 55 57 59 61 63 61 56 54 52 47 45 46 46 47 47 48 48 48 48 50 50 49 49 47 48 48 49 51 46 42 41 42 42 40 40 39 37 37 35 34 31 29 29 28 27 26 25 24 23 22 21 21 22 24 23 21 19 15 11 9 7 6 7 8 9 10 10 10 10 11 11 11 10 8 7 6 6 6 6 6 7
42 42 42 43 46 49 50 53 56 57 59 62 63 59 57 55 48 46 45 46 47 46 47 47 47 46 48 49 50 49 48 48 50 52 50 42 42 43 43 43 43 42 41 39 38 36 35 32 31 31 30 29 28 26 25 24 23 23 22 24 26 24 21 19 15 13 12 10 7 8 10 11 11 12 12 13 12 12 12 12 11 10 9 7 6 7 8 8
42 42 42 43 45 49 50 51 54 56 57 60 64 62 59 57 51 48 46 45 46 45 46 46 46 46 46 48 49 49 49 49 53 55 49 43 43 43 42 44 45 43 42 41 38 37 35 32 32 33 32 30 30 28 26 25 24 24 24 27 27 24 22 18 16 16 16 14 9 9 12 12 13 13 13 13 12 13 13 13 13 12 11 10 9 8 9 9
42 42 42 42 44 48 50 50 51 55 57 57 61 63 62 59 54 52 47 44 45 44 46 46 44 46 45 47 48 48 49 51 57 56 47 45 43 41 43 44 45 45 43 41 40 39 36 34 33 33 32 31 31 29 28 27 26 26 27 28 27 24 22 18 16 17 18 17 13 12 14 13 14 14 15 15 15 15 14 13 13 13 13 13 13 11 11 11
41 41 41 42 43 46 48 49 49 53 56 56 57 61 64 61 58 56 49 45 45 43 44 45 44 44 44 45 46 47 48 49 58 56 47 47 45 42 44 44 45 46 44 43 42 41 38 36 35 34 34 33 32 32 31 29 27 28 29 28 27 24 23 20 17 18 19 20 18 15 14 14 15 16 17 18 17 15 14 14 14 14 15 16 16 15 15 14
40 40 40 41 42 45 47 47 47 50 53 55 55 58 62 63 60 57 52 46 44 43 43 44 42 42 43 44 44 47 49 48 51 52 50 48 46 45 45 45 45 44 45 45 43 43 41 38 37 37 36 35 35 35 33 31 30 30 30 29 28 25 25 22 19 20 22 23 22 20 18 17 17 18 18 18 17 16 17 18 17 17 17 17 18 18 17 16
39 39 39 41 41 42 46 45 45 47 50 53 53 54 57 62 62 58 55 50 45 43 43 43 41 40 40 41 42 45 53 52 44 46 51 50 47 46 46 45 44 44 45 45 45 45 42 41 40 39 38 37 37 36 35 33 32 32 31 30 29 27 26 23 21 21 23 24 25 24 23 22 22 21 22 22 20 19 20 21 20 20 20 20 19 19 18 17
38 38 38 40 41 41 44 44 43 45 47 50 52 51 52 59 62 60 57 54 48 43 41 41 40 40 39 40 43 47 56 58 48 44 47 49 48 46 47 48 44 44 44 44 45 45 44 43 41 40 39 40 38 37 37 34 34 35 34 31 29 28 27 25 24 24 24 25 26 27 28 27 27 27 28 26 23 23 23 22 22 23 23 22 20 19 19 18
37 37 38 39 40 40 42 43 42 43 46 47 50 50 50 54 58 60 58 56 52 45 41 40 40 39 38 41 44 50 58 58 52 48 44 42 46 47 48 49 46 44 44 44 44 44 45 44 43 42 41 41 39 39 38 36 36 36 35 32 31 29 28 26 26 27 26 26 27 28 30 30 30 31 32 29 26 26 26 24 24 24 24 23 22 21 20 20
36 36 37 38 39 39 40 41 41 42 45 46 48 49 49 50 54 58 58 58 56 48 42 40 39 39 39 41 43 52 59 52 47 51 47 39 40 46 48 47 47 46 45 44 45 45 45 44 43 42 41 41 40 40 38 37 37 36 35 33 32 31 29 28 28 28 28 28 29 29 30 31 30 33 33 29 28 28 27 26 25 25 25 24 24 23 23 22
36 36 37 38 38 39 39 39 40 42 45 45 47 48 48 47 50 56 58 58 57 51 44 40 39 40 42 42 45 55 57 49 45 48 50 45 37 38 44 46 47 47 47 46 44 44 44 44 44 42 41 41 41 40 40 39 37 36 35 34 33 33 31 31 30 29 29 30 30 31 32 32 33 35 31 27 28 28 27 27 27 26 25 25 25 26 26 25
36 36 36 37 38 38 38 38 39 41 43 44 45 46 46 47 48 52 56 57 56 53 47 41 40 41 42 44 48 53 51 46 45 43 47 50 42 34 34 41 47 47 48 48 45 43 43 44 45 43 41 42 42 39 39 40 38 36 35 35 35 35 34 34 32 30 29 30 30 29 32 35 37 35 29 27 28 27 28 28 27 27 26 25 25 27 28 27
36 36 36 37 37 38 38 38 38 40 42 43 43 44 44 45 46 47 53 56 56 55 50 43 40 41 42 46 50 49 44 43 43 41 42 46 47 41 33 34 43 48 48 48 46 43 41 41 43 45 43 42 41 39 38 38 38 38 36 35 35 34 37 37 34 31 30 30 31 29 32 38 39 34 29 29 28 26 27 28 28 28 27 27 26 26 28 28
36 36 36 36 37 37 38 37 37 38 41 41 42 42 42 43 44 45 49 54 55 55 52 45 40 40 43 48 49 45 42 42 42 41 41 43 47 47 41 35 36 45 49 48 46 43 41 39 40 45 45 43 42 41 40 37 36 38 37 37 37 35 36 39 36 33 32 31 33 31 35 42 41 35 32 31 29 28 28 28 29 29 29 29 28 28 28 28
36 36 36 35 36 37 38 36 36 37 39 40 41 41 41 41 43 42 44 50 53 53 51 46 43 41 43 49 49 44 42 42 42 42 42 43 45 46 46 42 35 38 45 48 46 42 40 38 39 44 46 45 45 42 40 39 36 35 37 37 39 37 35 37 36 35 34 32 33 32 35 44 42 36 33 32 31 31 30 29 29 29 30 30 30 30 29 29
35 36 35 35 35 36 37 36 35 37 38 39 39 40 40 40 41 41 42 46 49 50 49 48 48 44 42 47 48 46 45 43 42 41 41 42 43 44 44 44 40 36 38 44 45 41 40 38 39 44 46 45 47 46 39 37 38 37 39 37 36 37 35 36 36 36 36 34 35 35 37 44 43 37 35 32 31 30 30 30 29 29 30 30 30 31 31 30
35 35 35 34 34 35 36 36 35 36 37 38 39 39 39 38 40 40 40 43 46 46 47 49 50 46 41 42 45 49 48 44 43 41 40 41 41 41 42 43 43 40 36 39 43 42 39 37 39 44 48 46 47 47 39 37 41 38 38 37 32 32 34 36 38 38 39 39 39 39 42 47 44 40 38 34 31 29 28 28 28 29 29 30 30 30 31 31
35 35 35 34 33 34 35 35 35 36 37 37 38 38 38 37 38 39 38 40 44 42 42 46 49 46 41 41 42 46 47 43 43 43 41 42 42 40 41 41 42 43 38 36 39 41 40 39 41 44 47 49 49 51 48 43 43 39 36 36 32 31 34 39 41 41 41 41 41 42 45 49 47 43 41 37 34 34 32 29 27 28 28 29 29 31 31 32
35 35 34 34 33 33 34 35 35 36 36 38 38 37 37 36 36 38 38 38 44 45 44 49 54 48 39 41 43 43 45 46 43 44 44 43 44 41 40 39 40 41 41 39 39 42 44 43 44 48 52 55 55 57 56 45 37 37 37 37 37 38 40 43 43 42 40 38 40 43 46 49 47 44 41 37 36 36 35 33 31 30 29 30 30 31 32 32
35 34 34 33 33 34 35 36 36 37 37 39 40 39 40 40 39 39 39 39 45 52 53 54 59 56 42 36 43 44 42 45 46 46 48 46 44 44 42 41 39 38 42 44 43 43 46 46 49 56 58 58 57 55 54 45 34 32 35 39 41 42 42 43 43 42 39 38 41 42 44 49 48 45 42 38 37 38 37 36 36 34 32 32 32 32 32 33
34 34 34 33 34 34 35 36 36 37 39 40 42 44 45 45 45 45 43 41 44 52 57 56 54 58 51 33 35 46 43 42 46 48 48 46 45 44 44 43 42 43 45 45 45 45 45 48 57 62 58 52 52 53 52 49 41 33 33 37 41 43 43 42 43 42 39 38 40 39 42 48 48 45 43 41 39 40 39 38 37 36 34 33 33 33 32 32
33 34 34 34 34 35 35 36 36 37 39 41 42 44 45 43 43 43 42 40 42 48 53 56 53 54 57 40 27 39 47 44 44 47 49 47 47 47 46 46 47 49 49 45 45 45 46 54 62 62 57 50 48 49 48 48 45 39 36 35 38 41 39 39 41 41 38 38 39 39 42 49 50 47 46 44 43 42 41 40 39 36 35 35 35 33 32 32
33 34 34 34 35 34 34 35 35 37 40 42 42 42 42 41 39 39 39 38 41 48 49 51 54 52 57 51 32 32 46 49 45 47 49 49 51 49 48 50 50 51 50 49 50 50 51 60 62 56 55 53 47 44 44 46 46 45 42 39 38 37 34 35 38 39 39 41 41 41 43 48 50 49 49 46 44 43 42 42 41 39 37 36 36 34 33 32
34 34 34 35 34 34 35 35 36 39 41 42 41 40 40 39 38 38 39 35 36 46 50 49 50 51 56 56 42 33 43 51 50 48 49 51 52 50 50 51 51 51 52 52 54 54 57 61 56 52 54 53 46 41 43 45 47 48 47 45 41 36 32 33 33 34 35 37 39 37 38 49 54 52 52 49 45 45 44 43 42 41 39 36 35 36 35 33
34 34 34 35 35 35 35 36 39 40 40 42 41 38 38 38 39 39 39 37 34 38 46 51 49 48 55 57 46 36 41 51 52 51 52 53 53 53 52 51 52 54 54 54 52 53 59 58 53 52 52 49 46 46 46 45 47 48 50 51 46 38 32 29 30 30 30 32 34 28 23 34 46 50 50 48 46 46 43 43 43 41 40 39 37 37 36 35
34 34 35 35 36 36 36 38 41 40 40 42 41 39 38 39 39 40 39 35 34 37 42 49 50 49 55 59 51 38 36 46 51 51 54 56 53 54 53 51 52 54 55 54 50 50 55 56 54 52 49 47 47 50 51 48 46 46 51 51 45 41 35 29 30 30 28 27 25 22 21 23 34 45 47 42 42 43 42 42 44 41 40 40 39 38 37 36
35 35 35 36 36 37 40 41 39 40 42 41 40 39 38 40 40 39 33 17 20 37 43 45 48 50 54 58 59 48 34 38 49 50 53 56 53 53 54 54 52 52 54 51 48 51 54 53 53 52 49 48 50 54 56 52 46 44 47 45 43 43 37 31 30 29 30 29 23 25 28 26 35 48 48 43 42 43 43 43 42 41 39 39 39 38 38 37
36 36 36 36 36 38 40 39 38 40 42 41 40 39 41 43 41 38 26 5 9 29 38 42 46 46 47 51 58 58 42 36 43 47 52 56 56 53 53 55 55 54 55 55 55 57 56 55 55 55 52 51 55 58 54 50 47 42 36 36 41 38 34 34 30 28 30 27 27 35 32 22 31 47 46 46 50 50 48 45 41 40 38 36 36 35 35 35
36 37 37 37 37 39 38 37 38 38 39 41 40 41 44 40 37 35 18 2 12 24 27 36 44 44 44 44 49 56 52 44 40 41 51 56 55 55 55 55 55 55 55 56 60 56 52 55 56 56 55 53 54 52 49 48 50 46 32 28 35 32 32 35 29 30 27 18 26 41 36 22 25 39 42 43 51 53 50 46 43 41 38 36 34 33 32 31
36 37 37 38 39 40 39 37 37 36 38 41 39 41 42 34 31 26 6 5 20 22 21 30 40 45 45 43 45 49 54 53 44 38 45 50 50 50 53 55 52 53 54 53 56 53 48 50 52 52 53 53 51 48 48 47 46 46 34 25 26 26 31 33 31 31 16 12 35 48 41 28 22 34 42 48 55 53 49 45 43 42 39 36 33 32 31 30
37 37 37 39 39 39 40 39 38 37 38 40 39 39 38 32 32 18 3 15 22 18 24 30 34 44 48 49 47 46 50 53 49 42 38 41 44 41 43 52 52 49 51 53 52 50 46 43 45 49 50 50 49 47 47 43 40 40 34 27 21 20 25 26 29 27 7 11 40 50 44 34 24 30 30 35 46 46 44 44 43 44 42 38 35 32 31 31
36 37 37 38 37 37 39 39 40 39 38 41 41 41 38 29 23 13 8 18 17 16 29 32 33 43 47 49 49 48 48 50 52 48 37 33 38 37 37 48 53 43 40 51 53 48 48 47 45 46 47 47 47 44 41 37 38 38 36 34 22 12 14 13 14 14 10 19 27 26 30 31 38 49 35 28 35 34 35 38 38 41 41 38 36 32 32 31
36 37 37 37 35 37 39 39 38 37 38 41 39 43 41 22 13 19 21 19 13 18 30 30 32 41 42 43 47 47 47 47 52 50 40 34 33 34 35 41 50 44 35 45 52 46 41 42 44 45 43 46 48 47 44 41 42 44 45 43 29 12 6 8 9 6 13 26 21 13 18 21 36 54 49 46 46 39 37 36 36 40 42 41 39 36 36 34
36 37 36 37 36 37 38 37 36 38 39 40 40 44 36 13 13 30 30 20 14 17 27 29 29 34 34 36 40 45 47 47 52 51 45 42 36 33 33 33 42 45 36 40 50 45 34 30 41 50 48 48 51 51 50 48 48 50 51 48 39 25 11 7 10 8 10 16 13 11 12 11 25 37 36 39 41 41 44 44 45 48 46 44 39 34 33 30
36 37 36 37 38 38 39 38 37 39 40 41 43 42 30 14 19 33 31 24 17 16 24 29 29 30 30 31 33 41 47 47 52 54 49 47 41 36 33 28 31 38 33 32 40 45 40 35 42 52 54 53 52 50 49 46 43 45 48 46 44 41 27 12 10 15 16 10 9 15 16 24 40 44 37 30 29 34 38 40 42 41 38 35 32 29 26 22
36 37 36 38 40 40 41 39 37 38 39 42 43 37 32 26 24 28 31 27 21 19 24 25 27 29 28 30 31 35 42 43 48 52 50 49 46 42 39 30 24 28 27 24 31 38 36 33 38 45 49 53 52 50 51 47 41 42 46 48 50 48 37 19 9 11 13 9 12 18 23 36 44 48 50 43 37 37 36 37 39 36 35 34 33 31 25 22
37 38 38 39 43 43 42 40 38 39 40 43 42 36 35 33 23 22 26 28 25 21 24 26 25 27 27 29 32 34 36 39 42 45 46 45 40 43 48 40 30 26 20 14 20 29 29 30 37 42 45 50 50 47 50 51 46 44 48 52 50 42 34 24 9 4 6 5 10 18 31 39 34 37 48 47 46 47 46 48 47 42 41 37 33 28 22 24
38 40 40 42 44 43 41 40 39 40 41 43 42 38 36 31 22 19 23 28 27 22 22 26 24 26 29 29 32 34 33 35 38 39 40 37 30 34 43 42 39 34 26 19 18 19 20 20 29 39 44 47 46 42 45 48 48 46 47 51 46 32 27 26 14 6 9 5 6 20 35 39 39 45 46 41 44 45 41 41 39 36 34 26 18 15 16 21
40 42 42 43 43 41 40 41 40 41 42 44 44 39 36 30 20 19 23 27 28 22 21 24 22 24 28 27 29 32 31 32 36 37 36 34 32 37 40 38 39 38 33 32 28 21 16 11 17 33 42 42 44 47 48 49 51 49 45 47 49 39 32 35 31 21 15 8 8 17 20 27 49 64 58 51 51 45 35 32 28 25 23 16 10 11 13 14
41 42 42 43 42 39 39 40 41 43 44 46 45 39 37 30 20 20 24 27 30 26 22 21 22 24 27 26 25 28 30 31 33 36 35 32 33 39 41 39 42 43 37 33 29 26 20 12 10 24 38 42 45 51 55 56 57 55 47 46 50 43 33 34 38 35 24 10 7 10 10 25 50 58 53 53 54 51 45 40 35 31 29 27 23 21 21 21
41 39 40 43 41 39 40 41 42 45 46 46 44 39 36 30 23 23 25 26 30 30 24 21 20 21 25 26 25 25 29 30 30 30 30 30 31 32 35 38 41 42 38 34 34 32 24 14 9 16 34 44 47 51 56 59 60 61 58 55 55 49 38 25 23 34 36 19 9 8 10 28 44 37 32 34 34 37 39 37 38 36 34 35 34 33 33 33
39 38 38 43 43 40 42 43 43 45 47 46 44 40 37 32 27 25 26 25 27 29 27 23 20 19 22 26 27 26 28 29 29 28 26 27 29 29 31 33 32 32 32 32 36 36 29 22 20 21 23 30 38 45 52 55 56 60 61 59 57 55 48 31 17 26 37 30 22 17 14 32 46 35 30 32 29 32 33 31 32 30 26 27 27 29 31 30
39 39 38 42 44 43 43 43 43 45 45 44 42 38 38 35 30 27 26 25 24 26 27 25 22 21 21 24 27 27 27 26 26 28 25 22 25 25 25 26 26 26 27 27 28 27 24 21 24 29 29 23 24 31 44 53 53 52 55 57 55 53 53 47 36 33 35 34 32 19 11 34 52 43 40 40 35 36 37 34 32 27 24 23 20 21 23 22
41 40 38 41 43 43 44 43 43 46 46 42 38 36 37 36 31 28 26 24 23 25 25 23 23 22 20 19 21 23 26 26 23 25 25 22 20 19 19 20 21 22 26 29 29 29 25 22 21 18 16 19 20 19 28 47 53 49 51 55 56 54 53 51 46 39 31 33 38 21 12 37 56 48 45 43 36 38 37 34 34 30 27 25 21 20 22 22
40 37 35 38 40 41 44 43 41 46 47 43 38 35 36 37 34 29 25 22 23 23 23 22 21 20 19 18 17 17 21 24 22 22 25 23 21 19 19 19 20 22 25 26 27 29 30 31 29 20 10 9 11 8 12 31 45 48 49 54 57 55 52 50 47 38 26 30 41 32 24 44 58 50 47 45 39 36 29 23 25 24 20 21 20 18 20 23
41 39 35 35 34 36 40 37 36 41 44 42 39 34 33 33 33 31 26 22 23 23 22 22 21 19 18 18 17 16 17 19 18 19 23 24 23 21 20 20 22 25 25 23 24 26 29 32 34 32 27 24 21 15 12 18 29 34 38 49 58 58 56 53 47 42 35 32 40 44 40 48 59 55 52 48 38 33 29 24 26 25 22 22 23 23 25 25
38 38 38 35 31 31 32 28 29 35 37 37 36 34 31 29 28 29 28 24 23 23 22 21 21 21 19 18 18 16 16 17 17 17 17 20 24 24 21 21 23 27 27 24 24 26 26 26 28 29 30 32 31 28 21 18 18 19 21 34 50 59 61 57 49 48 46 34 32 43 44 47 60 64 60 53 42 38 37 32 29 29 29 29 28 28 27 25
27 27 30 31 26 25 28 26 24 27 29 30 30 29 30 29 27 27 28 26 23 24 24 22 21 21 19 18 17 16 16 16 16 16 14 14 20 23 22 23 25 28 29 27 24 23 20 20 23 24 25 28 30 31 28 25 23 22 18 18 29 43 54 60 59 59 55 42 39 47 49 51 64 68 63 57 51 46 42 37 35 37 39 39 35 31 29 30
21 20 21 24 20 19 22 23 21 21 23 24 24 24 27 29 28 27 27 26 24 23 24 23 23 22 19 17 16 15 15 14 14 15 15 14 15 16 16 18 21 22 24 25 25 23 23 25 26 26 28 30 31 31 30 28 28 28 26 21 19 23 31 41 51 60 62 57 53 53 53 55 62 64 62 59 56 52 47 42 44 45 42 39 37 35 36 37
20 20 21 22 20 16 17 20 21 21 22 22 23 24 25 27 28 27 26 27 25 24 25 24 22 22 20 19 19 18 15 14 12 11 11 13 14 15 15 16 16 16 16 19 21 22 23 24 23 25 30 32 32 31 29 28 27 29 31 29 27 26 26 26 30 39 49 56 58 56 54 56 60 63 64 61 56 54 51 49 50 47 39 35 35 37 38 39
20 20 19 21 22 20 18 20 22 22 23 24 24 24 25 26 27 27 27 27 26 25 25 23 21 20 21 21 22 21 19 17 14 11 10 12 12 12 13 14 15 15 15 15 17 18 19 18 14 14 16 19 23 24 23 23 24 27 33 36 36 35 33 31 29 26 28 37 48 54 57 61 66 68 68 64 58 56 56 56 54 48 40 38 40 41 41 40
20 20 20 20 21 20 19 21 23 24 24 25 26 25 26 25 25 25 26 26 26 24 22 22 21 20 21 22 22 23 23 22 22 19 17 16 14 12 12 12 13 15 16 16 17 17 18 17 14 10 8 9 11 13 14 13 12 19 34 42 41 39 37 35 34 31 26 26 32 44 57 67 71 70 68 64 62 64 64 60 56 52 49 50 51 51 49 47
Wind_Direction
245 244 243 241 238 236 232 227 224 221 220 219 219 219 217 219 221 223 227 227 227 225 222 221 220 219 218 218 218 218 218 219 219 218 218 217 215 213 211 211 212 212 213 215 217 219 220 221 223 226 229 229 228 226 226 227 229 232 233 234 234 233 232 230 226 221 224 234 238 243 244 244 250 259 268 273 277 272 263 257 261 271 268 260 257 263 266 263
245 246 245 242 239 236 232 228 225 222 221 219 219 219 218 219 218 220 226 227 227 226 224 222 221 220 218 218 218 218 219 220 222 221 219 215 214 213 211 211 212 213 214 215 216 219 220 220 223 227 229 230 231 229 228 228 229 231 234 238 238 235 234 232 228 226 231 243 243 238 241 242 248 255 260 267 273 272 267 261 260 263 266 271 271 270 267 264
245 247 247 244 238 235 233 229 225 223 222 219 218 218 218 220 218 218 222 225 227 227 226 224 222 222 220 218 218 218 220 221 224 223 218 213 214 212 210 211 213 214 214 215 216 218 220 220 224 228 229 231 233 233 231 230 230 231 234 238 239 237 237 234 228 228 234 244 247 241 241 240 243 250 255 262 268 267 267 265 263 264 266 268 267 262 261 258
245 248 249 245 237 233 232 229 226 223 222 220 218 218 218 220 218 217 219 222 226 228 227 224 222 223 222 220 218 219 220 223 226 222 217 214 213 212 211 211 213 214 214 214 214 217 219 220 224 228 230 232 234 235 234 232 230 232 233 236 239 239 239 235 229 231 234 240 245 245 245 241 239 244 252 258 261 263 266 269 268 266 262 261 261 259 257 255
245 247 249 245 236 231 230 228 226 223 222 221 219 218 219 220 219 218 218 218 223 227 229 226 223 223 223 222 219 219 220 224 229 222 216 216 212 211 212 212 213 214 215 215 214 216 217 219 222 225 228 230 232 234 235 233 232 233 233 236 240 240 240 237 231 232 233 236 239 241 242 240 238 242 249 253 256 263 269 270 268 264 260 259 259 258 257 255
245 247 247 244 236 230 228 227 225 223 222 221 220 219 219 220 219 219 217 216 218 224 230 229 224 223 224 224 221 221 219 221 229 222 216 217 212 210 212 212 213 214 216 216 215 216 217 219 221 223 226 228 231 233 235 234 235 235 234 236 238 238 239 237 232 231 233 236 237 237 239 237 238 242 245 247 251 263 270 270 267 263 261 258 257 258 260 260
245 247 245 241 236 229 226 226 224 222 222 221 220 220 219 220 220 219 217 217 217 220 229 230 227 223 222 224 222 223 222 221 226 222 217 218 214 211 212 213 212 214 217 216 216 217 218 220 221 223 226 228 230 233 235 236 238 238 236 236 238 239 239 238 236 234 235 237 238 238 240 240 241 244 245 245 250 261 268 268 264 262 260 257 257 260 262 262
245 246 242 238 235 229 225 225 224 222 221 220 220 221 220 219 220 219 217 217 216 216 223 228 228 224 221 223 222 223 224 220 220 220 218 218 214 212 213 214 211 212 218 219 218 219 219 221 222 223 226 228 230 232 235 236 238 239 238 237 239 240 239 239 238 237 237 237 238 239 241 244 245 247 247 247 249 256 264 264 260 260 260 259 259 259 259 260
244 244 239 235 233 230 225 223 223 221 220 220 219 220 221 220 219 220 218 217 217 214 216 222 225 223 221 224 225 227 226 221 219 219 219 218 215 213 213 214 212 210 215 220 221 220 221 222 223 224 227 230 230 232 235 236 238 240 241 241 242 242 240 240 239 239 239 238 238 240 242 245 248 251 250 248 249 253 258 259 258 258 260 263 264 262 260 258
243 242 237 233 230 230 227 222 221 220 218 219 219 219 221 221 219 220 219 218 218 216 214 216 221 221 220 223 227 230 227 223 223 221 220 220 215 214 215 215 214 211 212 218 221 221 222 222 223 225 228 232 232 232 235 237 239 242 245 246 246 245 243 242 240 240 241 239 240 241 243 245 250 253 250 246 248 252 255 257 257 256 258 261 264 265 265 263
241 238 233 230 228 228 228 223 220 219 218 218 218 218 220 221 220 219 219 219 219 219 216 213 216 219 219 221 227 231 227 222 225 223 220 221 217 212 215 217 216 214 214 217 221 221 222 221 221 223 225 229 232 233 236 238 239 242 244 247 247 246 245 242 241 241 241 241 241 243 245 245 247 249 246 245 248 251 255 257 257 256 255 257 258 260 262 264
240 235 230 228 227 227 227 224 219 217 217 218 218 218 219 220 220 219 219 220 220 219 218 212 212 217 219 221 227 231 229 224 226 225 221 222 220 214 212 217 218 217 217 219 222 223 224 222 220 221 223 227 229 231 235 237 238 240 242 244 246 247 246 242 241 241 241 242 242 244 248 246 244 245 246 249 252 253 255 256 257 256 254 254 254 256 258 260
238 233 227 226 225 225 226 223 219 216 216 216 217 217 218 219 220 220 219 220 220 220 219 212 210 215 219 222 227 230 230 228 229 226 223 222 222 220 214 214 216 218 220 221 224 226 229 227 222 220 222 225 227 228 232 235 235 237 240 242 243 246 247 244 242 241 239 241 242 244 251 250 245 244 246 251 253 254 255 254 254 255 256 255 254 254 255 256
237 231 225 225 224 224 224 223 219 215 214 215 215 216 217 217 218 219 219 220 220 221 221 213 207 213 219 225 227 228 228 229 230 226 222 222 221 221 219 216 214 216 220 222 223 224 228 230 225 221 221 223 227 229 231 234 234 234 237 239 238 238 243 245 244 243 240 241 243 246 253 254 249 245 247 250 251 254 256 253 252 254 256 258 257 256 256 255
235 229 224 224 223 222 222 221 218 215 213 213 214 215 216 217 217 219 220 220 220 222 222 215 208 209 218 226 226 224 225 226 228 226 222 222 223 221 221 219 216 215 218 221 222 220 224 229 226 221 219 221 226 228 229 232 234 232 231 233 234 233 238 244 244 245 243 244 246 247 253 256 252 248 250 253 253 256 256 252 251 253 255 257 258 257 257 257
233 227 223 223 222 220 218 218 216 213 211 210 212 214 215 216 217 219 221 221 220 222 222 217 211 209 215 224 225 223 222 223 225 225 221 221 224 224 223 221 219 219 217 218 220 218 219 224 225 221 218 217 221 224 225 228 230 230 228 228 231 231 233 240 243 245 246 247 248 247 252 256 254 253 255 255 254 257 256 253 252 253 254 256 259 259 258 258
229 225 223 222 221 218 215 215 214 210 208 208 210 213 214 216 217 219 222 221 222 222 222 220 213 212 218 223 223 222 221 221 221 223 221 219 223 223 223 223 221 220 219 216 215 215 216 219 221 220 216 215 218 220 219 221 222 222 223 224 229 232 232 237 242 245 246 246 248 249 253 256 255 255 257 256 257 259 257 253 252 252 253 255 257 259 258 257
226 224 222 220 218 215 212 211 211 208 205 206 208 210 211 215 217 218 220 220 221 220 221 223 216 215 221 221 222 223 220 219 220 222 221 218 221 222 221 224 223 222 221 216 213 211 210 215 218 217 214 214 215 216 216 219 219 216 215 218 224 231 234 239 243 246 246 246 247 249 253 257 257 256 257 258 260 263 261 256 254 252 250 251 253 255 256 256
223 222 221 219 215 212 210 208 207 205 203 203 206 207 209 213 216 218 220 218 218 216 214 218 215 213 217 217 218 220 219 219 220 221 222 219 218 218 217 220 224 224 222 217 214 210 208 211 214 214 215 214 214 216 218 221 224 221 220 223 226 230 235 241 245 246 246 247 248 249 253 259 260 260 260 261 261 263 262 259 256 253 249 249 249 251 253 254
220 220 220 217 212 209 208 205 203 202 201 201 202 204 207 208 209 211 214 217 219 218 217 220 219 215 214 215 215 216 216 217 217 218 221 219 216 215 212 213 216 220 222 221 217 212 209 210 214 216 217 217 216 218 220 221 225 227 229 231 233 233 236 241 245 245 246 249 250 251 255 259 261 262 262 262 261 260 257 256 254 252 251 250 249 249 251 253
217 218 217 213 210 208 206 204 202 200 200 201 200 204 208 206 206 208 207 211 217 219 220 223 224 219 215 215 215 214 214 215 216 216 216 216 216 214 210 208 208 211 217 220 220 216 209 212 218 218 219 219 218 221 222 223 225 228 230 233 235 236 238 243 246 247 248 250 252 253 256 260 261 262 262 261 261 259 255 254 253 252 252 252 252 250 249 251
215 215 213 211 209 207 205 204 201 199 201 203 202 206 210 209 210 212 210 211 215 217 219 222 224 222 217 215 213 214 214 211 211 213 212 212 215 213 209 208 208 211 213 212 214 212 208 217 223 220 219 220 220 221 222 224 225 227 229 231 234 237 240 244 246 246 248 250 253 256 259 263 265 265 263 261 260 258 255 253 252 252 253 251 251 251 251 251
213 212 210 209 207 204 203 201 201 201 201 204 206 206 209 210 210 215 216 217 221 219 218 220 222 223 220 217 213 211 209 204 205 210 210 209 213 214 213 210 209 212 210 206 208 207 210 222 226 221 219 220 219 221 222 224 226 227 227 229 232 236 238 242 244 246 249 250 253 257 261 264 266 265 261 259 258 257 254 253 251 250 250 249 249 252 254 252
210 209 207 206 204 201 199 199 200 201 201 203 209 208 208 210 210 213 215 216 222 222 220 221 222 223 222 220 217 212 202 195 198 206 209 210 211 212 215 216 213 210 209 209 211 212 217 224 224 221 221 220 219 220 222 223 225 227 227 228 231 234 237 242 246 250 253 254 252 255 263 265 263 264 261 257 258 256 254 253 252 249 248 249 250 251 253 252
207 207 205 203 202 198 197 200 202 202 202 202 206 206 207 211 211 214 216 215 219 222 221 221 223 224 222 219 217 217 204 193 191 195 203 209 211 210 212 215 214 209 209 210 211 215 222 225 225 222 221 218 218 221 221 220 223 227 228 229 231 233 236 241 244 250 255 256 253 248 257 267 264 262 262 258 257 256 254 254 253 250 249 248 249 250 251 253
204 204 203 202 199 197 197 202 202 202 204 203 203 203 204 208 211 209 208 209 213 217 218 218 220 224 223 218 214 214 211 201 192 189 195 202 208 211 209 209 212 213 214 211 209 216 221 223 226 224 220 216 217 221 222 221 221 226 230 230 230 232 235 238 241 245 249 253 258 247 241 263 269 264 262 261 259 257 253 253 253 251 249 247 248 249 250 251
202 202 202 199 197 197 200 202 200 201 204 202 200 203 205 208 210 203 194 196 211 214 216 215 217 222 223 220 216 214 214 206 195 189 191 194 200 209 209 206 207 213 215 209 207 217 220 219 222 223 220 216 215 219 221 220 221 227 234 232 231 233 233 235 238 239 245 253 262 259 250 259 266 263 261 260 259 259 254 251 251 251 250 249 249 250 251 252
200 201 200 197 196 198 202 203 200 201 204 201 197 200 203 202 201 195 189 181 194 205 215 215 214 220 222 221 219 218 219 212 198 191 189 190 194 203 209 210 210 212 212 207 208 219 220 216 217 219 218 215 218 221 219 217 220 225 234 235 233 235 234 233 235 237 245 254 258 256 252 255 263 262 261 260 258 257 254 250 249 251 253 253 252 252 253 253
199 199 198 196 197 199 203 203 202 203 203 201 200 201 201 199 193 188 191 205 182 192 210 212 211 216 219 219 220 221 222 218 208 194 187 188 192 199 206 212 214 213 211 211 215 219 220 221 223 221 216 216 219 221 218 218 220 222 230 240 236 236 237 232 230 234 240 250 253 250 244 242 263 262 256 257 256 255 255 253 252 254 257 257 254 252 253 254
198 198 196 197 198 199 200 200 202 205 202 201 203 203 208 208 191 182 188 200 187 190 196 201 207 212 215 215 215 219 221 221 218 202 190 188 189 195 205 210 212 210 209 213 218 218 219 225 226 222 221 223 223 223 224 224 223 222 223 232 234 234 237 235 232 234 236 246 249 248 239 233 259 263 252 252 256 258 259 259 257 257 257 257 256 254 255 257
198 197 196 199 201 200 198 197 198 199 200 201 202 205 210 204 184 174 191 191 186 184 185 189 200 209 215 215 211 213 215 217 219 212 200 193 189 190 199 204 204 205 206 208 212 214 218 222 220 222 226 227 224 223 226 226 222 219 214 211 214 214 224 233 234 233 227 245 247 248 239 227 239 255 254 256 259 261 262 262 261 259 257 256 256 257 259 261
197 196 198 201 202 201 201 201 197 196 198 199 202 205 202 191 180 183 190 187 185 183 187 191 197 206 215 216 214 214 212 212 215 213 210 205 198 191 190 197 198 196 198 201 203 208 214 218 218 221 224 222 219 215 214 216 213 210 207 202 196 187 202 215 224 225 219 232 246 249 231 221 236 247 249 254 259 262 262 263 262 260 259 257 257 261 264 264
196 196 200 200 199 200 201 201 197 195 196 198 202 202 194 184 187 192 185 184 186 183 189 197 203 208 212 211 212 214 211 212 213 211 215 221 217 201 190 192 195 195 195 195 197 200 208 217 217 216 217 217 217 209 201 204 204 203 203 199 193 186 187 201 207 214 224 231 244 245 217 219 243 251 253 251 253 257 258 259 260 261 262 262 265 269 270 267
196 198 200 198 197 198 198 199 199 197 196 198 199 192 185 180 194 190 187 187 181 179 189 195 199 204 209 209 213 214 211 212 214 214 219 227 230 220 205 193 191 196 199 196 195 195 197 208 211 210 213 213 213 213 211 208 205 205 206 202 201 202 200 205 210 214 227 236 242 219 200 217 240 250 257 254 251 253 254 256 258 261 264 266 270 273 273 271
197 200 199 197 197 198 198 200 201 197 196 197 193 185 180 186 195 192 190 184 170 170 186 195 197 194 198 206 212 216 213 213 217 219 224 228 231 231 223 211 195 191 195 197 197 198 202 209 211 213 218 217 213 215 217 211 205 207 207 205 208 210 212 219 224 223 227 239 232 209 212 233 238 244 251 254 254 251 252 254 254 258 263 266 269 269 271 272
198 199 198 197 197 197 199 200 199 196 197 195 187 182 187 194 199 200 195 188 185 181 177 183 193 189 190 200 205 212 213 214 218 221 227 233 235 236 232 226 211 193 188 195 196 198 206 216 215 211 215 219 220 218 215 210 205 204 204 207 211 213 214 219 230 224 218 233 237 227 239 246 246 250 248 245 250 249 249 252 253 259 264 267 270 269 267 264
197 197 196 197 197 197 198 199 199 198 199 196 189 189 197 199 203 204 197 195 199 196 179 173 187 191 189 196 202 206 208 211 218 222 228 235 240 243 239 233 228 210 192 200 204 197 203 216 217 211 210 216 223 223 216 214 211 204 204 210 211 212 216 217 221 195 186 237 246 230 243 248 247 253 251 245 247 249 251 256 260 264 267 269 272 269 261 251
194 194 195 196 197 197 198 198 199 199 198 198 197 201 204 202 203 203 200 198 197 198 189 179 186 195 193 197 202 202 201 206 214 217 225 232 237 245 242 237 237 228 215 231 238 209 199 208 214 215 215 214 214 214 208 209 212 212 214 214 209 206 209 208 208 210 200 217 247 231 239 243 239 243 249 248 249 251 254 259 262 264 266 269 269 256 243 241
191 191 193 196 195 195 197 196 197 197 194 194 197 202 202 197 193 196 197 197 195 196 194 187 188 194 197 205 206 202 201 207 211 213 219 227 233 242 245 242 241 238 233 242 249 241 230 219 205 211 217 214 206 203 201 201 205 211 217 216 211 211 209 206 209 215 212 207 235 237 237 241 243 245 248 249 251 253 254 256 256 255 254 250 240 224 214 229
193 192 192 195 195 193 193 193 194 193 192 194 196 198 198 188 177 183 189 192 196 198 197 196 198 195 196 205 209 205 205 209 215 217 217 222 230 240 246 248 247 247 249 251 251 251 246 240 213 203 205 205 200 199 203 204 202 202 206 206 208 210 209 212 216 216 217 217 220 235 241 242 246 250 252 252 254 255 254 255 255 253 253 253 254 247 238 248
194 193 192 194 194 191 192 193 194 193 192 195 196 196 194 184 173 178 183 188 196 200 201 201 203 200 198 203 208 207 205 207 213 216 216 218 224 234 242 249 252 251 253 253 252 253 248 244 247 206 195 198 205 210 213 214 209 204 204 204 205 205 200 204 218 217 221 227 219 223 253 250 247 253 259 259 260 259 259 261 262 262 263 263 262 259 256 258
195 192 191 194 193 191 192 194 197 198 196 195 196 195 192 183 174 175 179 185 193 199 200 200 201 202 201 203 204 204 204 206 208 210 214 219 226 236 242 247 252 253 254 255 256 258 255 252 260 254 224 203 204 213 217 219 216 210 209 208 208 207 203 202 210 213 219 229 237 239 256 255 250 252 261 264 265 264 264 265 265 265 263 259 256 254 254 253
198 194 191 193 193 191 192 193 196 200 199 197 196 195 193 185 174 172 177 181 187 194 196 196 198 198 201 204 204 202 205 208 209 212 217 224 232 239 242 245 249 249 251 253 252 253 251 247 252 261 264 248 229 223 218 216 215 212 211 211 211 210 209 211 216 216 217 222 228 234 252 252 251 252 256 260 264 263 262 261 260 259 255 251 246 245 249 251
196 194 192 194 195 194 192 190 191 194 196 196 192 189 191 187 177 173 176 179 183 189 192 194 196 198 199 201 204 205 206 207 210 215 219 224 229 229 228 232 235 238 245 249 250 248 244 238 235 246 269 269 263 254 224 213 211 212 214 214 214 214 213 216 218 221 226 223 221 225 242 246 248 251 253 256 259 261 261 260 258 258 258 256 252 250 252 252
191 191 192 194 195 196 196 195 192 189 191 193 188 183 186 186 181 178 178 180 184 186 189 190 194 199 199 197 200 206 206 204 206 213 217 219 222 221 218 222 229 234 242 248 250 249 245 239 233 226 228 250 253 253 225 212 209 212 215 214 215 215 214 215 216 218 227 226 223 225 234 242 246 250 253 255 255 256 256 252 252 254 252 248 245 245 247 250
191 188 185 185 187 190 194 197 195 191 191 190 184 180 182 182 183 186 186 186 188 189 190 192 195 196 196 195 199 205 207 207 209 214 218 218 220 222 222 225 225 222 226 234 235 231 231 232 231 228 227 234 238 238 232 213 207 210 214 214 216 216 216 217 216 216 221 224 227 229 231 240 245 246 249 252 251 251 247 242 246 247 240 238 243 250 254 255
183 180 175 174 177 185 189 188 187 190 191 189 184 182 183 181 181 187 192 194 195 194 192 193 197 199 197 197 198 202 207 211 215 217 220 222 221 223 226 227 221 216 217 221 216 209 208 212 216 219 225 232 237 239 233 218 221 231 224 215 216 218 218 218 219 220 220 221 230 232 229 237 244 245 246 248 249 251 250 248 250 249 249 253 259 261 257 248
172 173 174 175 176 184 188 183 179 183 185 185 184 184 185 183 180 183 189 194 198 200 200 200 202 204 207 206 204 205 206 209 216 219 220 221 219 218 219 219 217 216 216 214 211 212 217 222 221 220 224 227 229 233 232 233 246 257 251 232 224 222 220 220 222 225 223 223 229 232 230 234 241 245 246 246 248 251 251 253 254 256 259 261 260 256 245 237
185 181 181 185 186 189 192 189 187 186 184 184 186 187 188 189 188 187 189 193 196 200 204 208 211 213 216 217 217 216 211 210 218 226 230 233 231 228 225 221 219 218 217 221 227 233 239 245 246 240 239 239 238 240 247 253 260 261 258 258 256 248 237 231 229 228 228 229 231 234 235 237 241 246 248 247 249 250 251 253 256 258 259 257 253 248 240 239
196 190 185 186 189 191 193 194 193 191 189 189 192 195 196 197 198 198 198 200 200 202 206 210 212 215 217 219 221 222 222 221 224 230 235 236 239 241 242 243 240 235 231 231 234 235 233 237 246 246 243 244 245 250 258 266 270 270 267 265 266 269 268 263 253 241 235 234 232 233 239 241 242 246 248 249 249 250 250 251 253 254 253 249 247 245 244 245
196 196 194 190 187 185 189 194 193 191 191 193 196 199 200 202 203 204 205 207 207 209 212 211 209 212 215 219 223 226 227 228 227 227 228 231 234 235 236 239 237 233 232 229 226 225 220 220 233 240 239 245 250 253 259 266 270 272 269 265 263 264 266 271 273 266 257 248 238 233 236 240 242 245 247 248 248 249 250 250 251 251 248 247 248 248 249 247
189 190 194 195 188 182 183 190 193 192 193 195 198 200 202 203 205 206 208 211 212 213 216 215 212 212 214 217 221 224 227 231 234 235 236 236 235 230 229 230 227 225 227 225 227 230 226 230 239 245 257 261 238 228 240 251 255 258 261 261 261 261 262 266 271 273 276 271 253 239 235 238 243 246 246 247 247 248 250 251 252 252 251 252 253 254 255 252
Height
3032 3034 3036 3038 3039 3041 3044 3048 3052 3056 3060 3064 3068 3072 3076 3079 3082 3085 3087 3090 3093 3095 3098 3101 3104 3108 3111 3114 3117 3119 3122 3123 3124 3124 3124 3131 3140 3144 3146 3149 3151 3153 3155 3158 3160 3162 3165 3168 3170 3171 3171 3172 3174 3175 3177 3178 3180 3181 3182 3182 3182 3183 3184 3186 3188 3188 3189 3189 3189 3190 3191 3191 3191 3192 3192 3192 3192 3192 3193 3193 3193 3193 3194 3194 3194 3195 3195 3195
3028 3029 3031 3033 3035 3037 3040 3043 3047 3051 3055 3059 3063 3067 3071 3075 3078 3082 3084 3087 3089 3092 3096 3098 3101 3104 3108 3111 3113 3116 3119 3120 3120 3118 3123 3133 3137 3139 3143 3146 3148 3150 3153 3155 3158 3161 3163 3166 3168 3168 3169 3170 3172 3173 3175 3177 3178 3179 3180 3180 3179 3181 3183 3185 3187 3188 3188 3188 3189 3189 3190 3190 3190 3191 3191 3191 3191 3192 3192 3192 3193 3193 3193 3194 3194 3194 3194 3195
3023 3025 3026 3028 3030 3032 3035 3038 3042 3046 3050 3054 3059 3063 3067 3070 3074 3078 3081 3084 3086 3090 3092 3095 3099 3101 3104 3107 3110 3114 3115 3116 3113 3112 3122 3131 3132 3137 3141 3143 3145 3147 3150 3153 3156 3159 3161 3165 3166 3165 3167 3168 3169 3171 3173 3175 3176 3177 3178 3177 3177 3180 3182 3184 3186 3186 3187 3187 3188 3188 3189 3189 3189 3190 3190 3190 3190 3191 3191 3192 3192 3193 3193 3193 3193 3194 3193 3194
3019 3020 3021 3023 3025 3028 3030 3034 3037 3042 3045 3049 3054 3058 3062 3066 3070 3074 3078 3081 3084 3087 3089 3092 3095 3098 3101 3103 3107 3110 3112 3112 3105 3109 3123 3127 3130 3135 3137 3140 3142 3144 3147 3150 3153 3156 3159 3162 3162 3163 3165 3166 3167 3169 3170 3172 3174 3175 3175 3175 3176 3179 3181 3183 3185 3185 3185 3186 3186 3187 3187 3188 3188 3188 3189 3189 3189 3190 3190 3191 3191 3192 3192 3192 3192 3193 3193 3193
3015 3016 3017 3018 3020 3023 3026 3029 3033 3037 3041 3045 3050 3054 3058 3061 3066 3070 3074 3078 3081 3084 3086 3089 3092 3095 3098 3100 3104 3106 3108 3106 3099 3110 3123 3123 3128 3132 3133 3137 3138 3142 3145 3147 3150 3153 3156 3157 3159 3160 3161 3163 3164 3165 3167 3170 3172 3172 3173 3174 3175 3177 3179 3181 3183 3184 3184 3184 3184 3185 3186 3187 3187 3187 3187 3188 3188 3189 3190 3190 3190 3191 3191 3191 3191 3192 3192 3192
3011 3012 3012 3013 3016 3019 3021 3025 3028 3033 3037 3041 3045 3049 3053 3057 3062 3066 3070 3074 3078 3081 3083 3086 3089 3093 3095 3097 3100 3101 3102 3100 3097 3109 3119 3120 3125 3128 3130 3133 3136 3140 3141 3144 3147 3149 3152 3154 3156 3156 3158 3160 3161 3162 3165 3168 3169 3169 3171 3172 3174 3176 3177 3179 3181 3182 3182 3182 3182 3183 3184 3185 3185 3186 3186 3186 3187 3188 3188 3188 3189 3189 3189 3190 3190 3190 3191 3192
3006 3007 3008 3009 3011 3014 3018 3021 3024 3028 3033 3037 3041 3045 3049 3053 3058 3062 3067 3071 3075 3079 3081 3084 3087 3089 3092 3094 3096 3095 3095 3096 3098 3107 3114 3117 3123 3125 3128 3131 3134 3138 3138 3141 3144 3146 3149 3151 3152 3154 3157 3158 3159 3161 3164 3165 3166 3167 3168 3170 3172 3174 3175 3177 3179 3179 3180 3180 3180 3181 3182 3182 3183 3183 3183 3184 3186 3186 3186 3187 3187 3188 3188 3188 3189 3189 3190 3191
3002 3003 3004 3005 3007 3010 3014 3017 3021 3025 3029 3033 3037 3041 3045 3049 3053 3058 3063 3067 3071 3076 3078 3081 3084 3086 3089 3090 3091 3089 3086 3091 3098 3105 3110 3114 3120 3123 3125 3127 3131 3135 3136 3138 3141 3144 3146 3148 3150 3153 3154 3155 3158 3160 3161 3163 3163 3164 3166 3168 3170 3171 3173 3175 3177 3177 3177 3178 3178 3179 3179 3180 3181 3181 3181 3182 3184 3185 3185 3185 3185 3185 3186 3186 3187 3188 3189 3189
2998 2999 3000 3002 3004 3006 3010 3014 3017 3021 3025 3029 3033 3037 3041 3045 3050 3054 3059 3064 3068 3072 3075 3079 3081 3084 3086 3086 3087 3083 3080 3090 3099 3103 3108 3112 3117 3120 3121 3124 3128 3132 3134 3136 3139 3141 3143 3145 3148 3151 3153 3154 3157 3158 3159 3160 3159 3161 3165 3167 3168 3169 3171 3173 3174 3175 3175 3175 3176 3176 3177 3178 3178 3178 3178 3179 3182 3183 3183 3183 3183 3183 3183 3184 3185 3186 3187 3187
2993 2995 2996 2998 3000 3003 3006 3010 3014 3017 3022 3026 3030 3034 3038 3041 3046 3050 3055 3060 3064 3069 3072 3076 3079 3082 3083 3083 3083 3077 3079 3094 3099 3102 3108 3110 3114 3117 3118 3122 3126 3129 3132 3133 3136 3138 3140 3143 3147 3150 3152 3153 3154 3155 3156 3157 3158 3161 3163 3164 3165 3167 3169 3170 3171 3172 3172 3173 3174 3174 3175 3176 3176 3175 3174 3176 3180 3181 3181 3181 3181 3181 3182 3182 3183 3184 3184 3185
2989 2991 2993 2994 2997 2999 3003 3006 3010 3014 3018 3022 3026 3030 3034 3038 3042 3046 3051 3055 3060 3065 3069 3072 3076 3078 3079 3079 3077 3072 3080 3093 3095 3098 3105 3108 3111 3114 3117 3120 3123 3126 3129 3131 3133 3136 3138 3141 3145 3148 3149 3149 3151 3153 3154 3154 3157 3159 3160 3161 3162 3164 3165 3166 3167 3168 3169 3170 3171 3171 3172 3172 3172 3171 3171 3174 3178 3179 3179 3179 3179 3179 3180 3180 3181 3181 3182 3182
2985 2987 2989 2991 2993 2996 2999 3003 3007 3011 3015 3019 3023 3027 3031 3035 3039 3043 3047 3051 3056 3061 3065 3069 3072 3074 3076 3075 3071 3071 3082 3091 3091 3096 3102 3105 3110 3112 3115 3118 3121 3124 3127 3129 3131 3134 3136 3139 3142 3144 3145 3146 3149 3151 3151 3152 3156 3157 3157 3158 3159 3160 3160 3162 3164 3165 3166 3167 3168 3169 3167 3166 3167 3168 3169 3173 3175 3176 3177 3176 3177 3177 3177 3178 3179 3179 3179 3180
2981 2983 2985 2988 2990 2993 2996 2999 3004 3008 3012 3016 3020 3024 3028 3032 3036 3040 3043 3048 3052 3057 3061 3065 3068 3072 3072 3068 3068 3073 3082 3087 3089 3094 3099 3102 3107 3110 3112 3114 3117 3121 3124 3126 3128 3132 3135 3137 3139 3141 3143 3144 3147 3148 3147 3149 3153 3154 3155 3155 3156 3156 3155 3157 3161 3162 3164 3164 3165 3167 3162 3159 3163 3166 3168 3171 3172 3173 3174 3174 3174 3174 3174 3175 3176 3176 3177 3177
2977 2979 2982 2985 2987 2990 2993 2996 3000 3005 3009 3013 3017 3021 3025 3029 3033 3037 3040 3044 3049 3053 3057 3061 3064 3068 3067 3065 3067 3073 3080 3082 3084 3089 3094 3098 3101 3105 3109 3112 3114 3116 3119 3122 3126 3129 3132 3135 3136 3138 3140 3142 3144 3145 3146 3148 3150 3152 3152 3151 3151 3151 3150 3154 3157 3158 3161 3162 3163 3164 3158 3155 3159 3163 3166 3168 3169 3170 3170 3171 3172 3172 3172 3172 3173 3174 3174 3175
2973 2976 2978 2981 2984 2987 2990 2993 2997 3002 3006 3010 3015 3018 3022 3026 3030 3034 3038 3041 3046 3049 3053 3057 3059 3062 3063 3062 3065 3071 3075 3076 3079 3086 3091 3094 3098 3101 3105 3109 3111 3113 3116 3119 3122 3127 3130 3132 3133 3135 3136 3138 3141 3142 3144 3145 3146 3148 3148 3145 3146 3147 3148 3151 3154 3155 3158 3160 3160 3161 3155 3152 3155 3160 3163 3165 3166 3166 3167 3168 3169 3169 3170 3170 3170 3171 3171 3172
2969 2972 2975 2978 2981 2983 2987 2991 2994 2999 3003 3008 3012 3016 3020 3024 3027 3031 3034 3038 3042 3045 3049 3051 3053 3058 3059 3058 3062 3067 3068 3071 3077 3083 3087 3091 3095 3098 3103 3107 3110 3112 3114 3116 3120 3124 3127 3129 3130 3132 3133 3135 3137 3138 3141 3143 3142 3142 3141 3141 3142 3144 3147 3149 3150 3152 3155 3157 3156 3156 3152 3149 3152 3156 3160 3161 3162 3163 3163 3165 3166 3166 3167 3167 3167 3168 3169 3169
2965 2968 2971 2974 2977 2980 2984 2988 2991 2996 3001 3005 3010 3014 3018 3022 3025 3029 3031 3035 3038 3041 3044 3046 3051 3056 3055 3054 3057 3059 3063 3069 3074 3079 3084 3088 3091 3095 3099 3102 3105 3109 3111 3114 3117 3120 3124 3125 3126 3127 3129 3131 3133 3135 3137 3134 3132 3134 3136 3139 3140 3142 3146 3147 3147 3149 3152 3153 3151 3151 3147 3145 3149 3153 3155 3158 3159 3159 3160 3162 3163 3163 3164 3164 3165 3165 3165 3166
2961 2964 2968 2971 2974 2977 2981 2984 2989 2993 2997 3002 3007 3011 3016 3020 3023 3025 3027 3030 3034 3038 3041 3042 3046 3050 3048 3049 3052 3054 3061 3067 3071 3076 3080 3084 3087 3091 3095 3098 3102 3105 3108 3111 3113 3116 3119 3121 3122 3124 3125 3126 3126 3127 3125 3121 3125 3131 3133 3136 3139 3140 3142 3142 3144 3146 3148 3149 3148 3148 3143 3141 3145 3149 3151 3155 3156 3156 3156 3158 3159 3160 3161 3161 3162 3161 3161 3161
2957 2961 2964 2967 2971 2974 2977 2982 2986 2990 2995 2999 3004 3009 3013 3017 3019 3021 3023 3025 3027 3029 3030 3031 3036 3040 3041 3044 3047 3051 3058 3063 3068 3072 3074 3079 3083 3087 3091 3094 3098 3102 3104 3106 3108 3111 3114 3116 3117 3116 3114 3114 3115 3116 3117 3121 3127 3131 3132 3135 3136 3136 3137 3138 3140 3142 3145 3146 3144 3144 3141 3138 3142 3145 3147 3151 3153 3153 3153 3154 3155 3155 3157 3158 3158 3158 3158 3158
2954 2958 2961 2964 2968 2971 2975 2979 2983 2987 2992 2995 2999 3004 3005 3007 3011 3013 3016 3020 3021 3023 3026 3028 3030 3035 3038 3041 3043 3047 3053 3058 3061 3065 3069 3074 3078 3081 3085 3088 3093 3097 3098 3100 3103 3106 3109 3110 3107 3103 3102 3106 3112 3116 3120 3125 3128 3130 3132 3133 3133 3133 3133 3135 3139 3140 3143 3142 3139 3141 3140 3136 3138 3141 3143 3147 3149 3148 3148 3149 3150 3151 3152 3153 3155 3155 3155 3155
2951 2954 2958 2961 2965 2968 2972 2976 2980 2984 2988 2991 2994 2996 2997 3000 3002 3004 3009 3014 3016 3020 3024 3026 3029 3033 3037 3038 3039 3044 3049 3052 3056 3060 3064 3070 3074 3076 3078 3082 3085 3087 3090 3096 3100 3102 3105 3103 3096 3096 3102 3109 3114 3117 3120 3123 3126 3128 3130 3130 3131 3131 3131 3135 3137 3138 3141 3138 3135 3138 3137 3132 3134 3137 3139 3142 3143 3142 3144 3145 3146 3147 3149 3149 3151 3151 3152 3152
2948 2951 2955 2959 2962 2966 2969 2974 2978 2981 2985 2987 2989 2991 2995 2999 3002 3005 3009 3011 3012 3015 3018 3021 3025 3029 3034 3037 3038 3042 3045 3047 3052 3055 3059 3065 3067 3069 3072 3076 3077 3079 3085 3090 3092 3096 3098 3092 3088 3096 3105 3110 3113 3115 3119 3121 3124 3126 3126 3128 3127 3127 3130 3133 3135 3136 3138 3135 3132 3135 3133 3129 3129 3132 3134 3135 3136 3137 3139 3141 3142 3144 3145 3145 3146 3147 3148 3149
2944 2948 2952 2955 2959 2963 2967 2971 2976 2978 2980 2983 2985 2989 2993 2998 3003 3006 3009 3011 3012 3013 3015 3017 3020 3025 3030 3033 3036 3039 3041 3043 3047 3051 3055 3059 3060 3065 3068 3070 3073 3077 3080 3080 3082 3086 3085 3080 3086 3099 3104 3106 3109 3112 3116 3119 3121 3121 3122 3124 3123 3125 3129 3130 3132 3134 3134 3132 3131 3132 3129 3124 3124 3124 3125 3129 3131 3133 3135 3135 3137 3139 3140 3141 3142 3144 3145 3145
2941 2945 2949 2953 2957 2960 2964 2969 2972 2974 2976 2980 2983 2987 2992 2996 3001 3003 3006 3009 3009 3010 3013 3015 3018 3021 3026 3030 3034 3038 3038 3039 3041 3047 3052 3054 3056 3061 3064 3067 3071 3074 3074 3075 3078 3079 3078 3079 3088 3097 3099 3101 3107 3110 3113 3115 3115 3116 3118 3119 3120 3124 3127 3129 3132 3133 3132 3130 3128 3131 3128 3116 3116 3118 3117 3124 3127 3128 3130 3130 3131 3134 3136 3138 3138 3139 3141 3141
2938 2942 2946 2950 2954 2958 2963 2965 2967 2970 2974 2977 2980 2985 2991 2994 2998 3001 3004 3006 3006 3006 3009 3012 3015 3017 3021 3028 3032 3035 3037 3037 3038 3042 3046 3049 3052 3055 3059 3064 3067 3068 3070 3074 3077 3077 3078 3081 3086 3092 3094 3098 3104 3105 3107 3109 3111 3113 3113 3115 3119 3123 3126 3129 3132 3132 3131 3127 3124 3131 3126 3107 3107 3113 3111 3119 3122 3121 3125 3125 3126 3129 3132 3134 3134 3135 3137 3138
2936 2940 2943 2947 2951 2956 2959 2959 2962 2968 2971 2974 2978 2983 2987 2990 2995 2998 3000 3002 3001 3000 3003 3007 3011 3012 3015 3023 3028 3033 3037 3036 3035 3037 3039 3043 3049 3051 3054 3058 3061 3064 3067 3073 3077 3075 3076 3080 3082 3087 3090 3094 3099 3100 3102 3106 3109 3108 3107 3112 3120 3123 3125 3127 3130 3131 3129 3124 3123 3128 3122 3105 3102 3106 3107 3114 3115 3115 3120 3119 3120 3125 3127 3129 3130 3131 3133 3134
2933 2937 2941 2945 2949 2952 2953 2954 2960 2965 2967 2971 2976 2981 2985 2988 2992 2994 2997 2999 2995 2994 2999 3003 3007 3008 3011 3017 3023 3029 3031 3031 3032 3034 3035 3039 3044 3048 3049 3050 3055 3060 3065 3072 3072 3067 3070 3075 3077 3082 3086 3089 3091 3090 3095 3102 3105 3104 3105 3112 3119 3120 3124 3126 3128 3129 3125 3123 3123 3122 3121 3110 3097 3095 3102 3109 3109 3109 3112 3114 3115 3119 3122 3125 3126 3128 3129 3130
2930 2934 2938 2942 2946 2949 2950 2954 2958 2961 2965 2970 2973 2978 2982 2985 2989 2991 2993 2993 2988 2989 2994 2997 3003 3007 3009 3013 3019 3024 3026 3029 3031 3031 3033 3036 3039 3042 3044 3045 3049 3053 3058 3060 3058 3059 3065 3067 3068 3073 3078 3079 3080 3083 3091 3099 3103 3104 3106 3111 3116 3120 3123 3124 3126 3126 3123 3124 3120 3116 3120 3111 3088 3085 3097 3103 3102 3102 3104 3108 3112 3115 3118 3121 3123 3125 3126 3127
2928 2932 2936 2940 2943 2946 2949 2953 2957 2960 2965 2969 2972 2975 2978 2981 2985 2987 2988 2987 2982 2984 2988 2992 2998 3002 3003 3008 3014 3019 3024 3028 3029 3029 3031 3033 3035 3038 3038 3041 3047 3050 3053 3053 3054 3060 3063 3063 3066 3069 3071 3073 3077 3084 3091 3096 3099 3103 3107 3110 3115 3120 3122 3123 3123 3122 3123 3121 3111 3108 3116 3109 3083 3078 3091 3095 3092 3093 3098 3104 3108 3111 3115 3117 3119 3121 3122 3124
2925 2929 2934 2937 2939 2942 2946 2950 2955 2959 2964 2968 2970 2973 2975 2978 2980 2982 2984 2981 2978 2981 2985 2988 2992 2994 2997 3003 3009 3014 3019 3024 3027 3028 3028 3029 3032 3034 3035 3041 3047 3048 3050 3053 3056 3060 3062 3064 3067 3066 3068 3073 3080 3085 3088 3092 3097 3103 3109 3110 3113 3118 3119 3121 3119 3118 3121 3113 3101 3100 3108 3108 3086 3070 3080 3085 3083 3089 3095 3100 3104 3107 3111 3113 3115 3117 3118 3119
2923 2927 2931 2934 2936 2939 2943 2946 2950 2955 2960 2965 2968 2970 2973 2975 2976 2977 2978 2976 2977 2980 2981 2984 2988 2990 2992 2998 3003 3008 3014 3019 3024 3026 3024 3025 3027 3029 3032 3038 3042 3044 3047 3049 3053 3058 3060 3062 3062 3062 3067 3073 3079 3083 3085 3090 3096 3100 3105 3107 3111 3115 3116 3118 3117 3117 3117 3103 3092 3093 3100 3107 3088 3064 3070 3079 3079 3086 3091 3093 3099 3103 3106 3109 3112 3113 3114 3115
2921 2925 2928 2931 2935 2939 2942 2945 2948 2952 2957 2961 2963 2966 2970 2973 2971 2971 2972 2973 2975 2977 2976 2980 2984 2986 2990 2995 3000 3005 3010 3015 3019 3022 3022 3022 3023 3024 3026 3029 3033 3037 3038 3040 3047 3053 3054 3054 3055 3059 3064 3068 3073 3079 3083 3088 3091 3095 3100 3103 3108 3110 3111 3112 3109 3107 3104 3092 3087 3090 3094 3098 3080 3061 3069 3077 3076 3082 3086 3089 3094 3097 3101 3105 3107 3110 3111 3111
2919 2923 2926 2929 2933 2937 2940 2944 2947 2951 2954 2957 2960 2962 2966 2967 2965 2966 2968 2969 2971 2972 2974 2978 2981 2984 2988 2992 2996 3001 3008 3011 3014 3018 3019 3019 3020 3020 3022 3023 3026 3029 3030 3035 3041 3045 3049 3051 3053 3056 3059 3062 3066 3069 3073 3078 3082 3085 3088 3092 3096 3098 3099 3098 3097 3096 3093 3087 3087 3090 3092 3089 3074 3062 3067 3072 3074 3079 3081 3085 3090 3092 3097 3099 3103 3106 3106 3106
2918 2920 2923 2927 2931 2934 2938 2942 2945 2948 2951 2953 2956 2958 2960 2962 2961 2963 2965 2966 2969 2971 2974 2977 2980 2984 2987 2989 2993 2997 3003 3008 3010 3014 3015 3015 3016 3017 3018 3020 3022 3025 3029 3033 3034 3036 3040 3041 3041 3045 3049 3053 3057 3060 3063 3069 3074 3075 3080 3085 3086 3085 3086 3086 3088 3089 3087 3087 3088 3090 3088 3081 3070 3062 3060 3065 3072 3076 3077 3081 3084 3087 3091 3094 3098 3101 3101 3102
2916 2918 2921 2925 2929 2932 2936 2940 2943 2945 2947 2950 2953 2954 2955 2957 2959 2960 2962 2964 2968 2970 2973 2976 2979 2982 2985 2988 2991 2994 2999 3003 3006 3009 3010 3010 3012 3013 3015 3017 3019 3022 3026 3030 3031 3032 3033 3030 3031 3038 3043 3046 3050 3056 3063 3069 3072 3075 3080 3083 3079 3080 3083 3084 3085 3085 3086 3088 3085 3083 3078 3069 3064 3059 3059 3064 3067 3070 3074 3075 3078 3081 3085 3090 3094 3096 3097 3098
2913 2915 2919 2923 2926 2930 2933 2937 2940 2942 2944 2947 2950 2950 2951 2954 2956 2957 2960 2964 2966 2968 2971 2975 2979 2980 2983 2986 2987 2990 2995 2997 3001 3005 3006 3006 3008 3010 3012 3015 3017 3019 3022 3025 3027 3029 3030 3029 3031 3037 3041 3044 3047 3052 3057 3061 3066 3072 3075 3072 3073 3080 3083 3083 3083 3083 3087 3086 3079 3076 3071 3065 3064 3057 3055 3062 3063 3065 3070 3071 3074 3078 3081 3086 3089 3091 3094 3095
2910 2913 2917 2920 2924 2927 2931 2935 2938 2940 2943 2945 2946 2947 2949 2952 2954 2957 2960 2963 2966 2968 2969 2973 2976 2978 2980 2983 2984 2987 2990 2994 2997 3001 3002 3004 3005 3006 3009 3012 3015 3017 3020 3022 3024 3025 3026 3027 3028 3032 3036 3039 3045 3051 3053 3055 3060 3063 3063 3065 3074 3080 3080 3081 3083 3082 3085 3083 3076 3073 3067 3064 3064 3052 3047 3057 3059 3060 3065 3068 3072 3075 3077 3080 3084 3087 3090 3090
2907 2911 2915 2918 2922 2926 2929 2933 2936 2938 2940 2942 2943 2945 2947 2951 2954 2956 2959 2962 2965 2967 2968 2970 2973 2975 2978 2979 2981 2984 2987 2990 2992 2995 2999 3002 3002 3001 3005 3010 3012 3015 3018 3020 3022 3022 3024 3026 3026 3028 3031 3036 3042 3049 3051 3054 3058 3058 3059 3064 3070 3071 3072 3076 3078 3075 3079 3079 3071 3066 3060 3056 3054 3045 3042 3051 3055 3057 3062 3065 3069 3072 3074 3077 3079 3082 3084 3084
2906 2909 2913 2916 2921 2925 2928 2931 2934 2936 2937 2938 2940 2942 2945 2950 2954 2955 2958 2961 2963 2965 2967 2969 2970 2973 2976 2977 2979 2982 2985 2987 2989 2992 2995 2998 2999 2999 3002 3006 3009 3012 3015 3017 3020 3021 3023 3024 3023 3024 3029 3034 3037 3039 3041 3045 3051 3055 3058 3061 3062 3062 3064 3066 3067 3066 3069 3070 3064 3059 3054 3045 3040 3037 3041 3047 3051 3055 3060 3061 3065 3069 3072 3074 3077 3079 3080 3081
2904 2907 2911 2915 2919 2923 2927 2929 2931 2932 2933 2935 2937 2940 2944 2949 2952 2954 2956 2959 2961 2963 2965 2967 2969 2971 2974 2975 2977 2980 2983 2986 2987 2990 2992 2994 2997 2998 2999 3003 3007 3009 3011 3014 3018 3020 3022 3023 3021 3022 3026 3028 3026 3027 3029 3033 3038 3041 3046 3050 3052 3056 3059 3061 3061 3060 3061 3061 3058 3055 3045 3033 3032 3036 3039 3044 3048 3051 3056 3058 3061 3065 3068 3071 3074 3076 3077 3078
2903 2906 2909 2913 2917 2921 2924 2926 2927 2928 2930 2933 2936 2939 2943 2948 2950 2952 2955 2957 2959 2961 2964 2966 2968 2969 2971 2973 2976 2979 2982 2984 2985 2988 2990 2992 2994 2996 2997 3000 3004 3007 3009 3011 3014 3018 3021 3022 3021 3020 3019 3019 3020 3022 3024 3025 3026 3028 3032 3036 3040 3045 3051 3054 3054 3053 3055 3053 3050 3050 3038 3025 3031 3037 3037 3041 3045 3047 3052 3055 3056 3060 3063 3066 3069 3071 3072 3074
2902 2904 2906 2910 2914 2918 2921 2922 2923 2926 2928 2930 2934 2938 2942 2945 2948 2950 2953 2955 2957 2960 2962 2965 2967 2968 2970 2971 2974 2977 2979 2981 2983 2985 2987 2989 2991 2994 2996 2999 3001 3003 3005 3008 3010 3014 3019 3021 3020 3017 3015 3017 3020 3023 3024 3026 3028 3029 3028 3031 3036 3039 3041 3043 3043 3047 3052 3048 3046 3048 3035 3022 3029 3037 3036 3039 3042 3045 3048 3050 3052 3055 3058 3060 3063 3065 3066 3068
2900 2902 2905 2908 2912 2915 2917 2919 2920 2923 2925 2928 2933 2936 2939 2942 2945 2948 2951 2953 2955 2958 2960 2962 2965 2967 2969 2970 2972 2975 2977 2979 2981 2982 2984 2986 2989 2992 2994 2996 2998 3000 3002 3005 3007 3011 3015 3017 3018 3016 3014 3014 3016 3018 3021 3025 3029 3028 3027 3030 3033 3033 3035 3038 3039 3043 3044 3040 3042 3045 3032 3021 3028 3035 3036 3037 3039 3041 3044 3046 3048 3051 3054 3057 3059 3061 3063 3064
2898 2901 2904 2907 2910 2913 2914 2915 2916 2919 2923 2927 2930 2933 2937 2940 2943 2946 2949 2951 2954 2956 2958 2961 2963 2965 2967 2969 2971 2973 2975 2977 2979 2981 2983 2984 2986 2989 2991 2993 2995 2997 2998 3001 3004 3007 3010 3012 3014 3016 3015 3013 3012 3014 3016 3018 3019 3020 3022 3026 3027 3030 3034 3036 3038 3042 3037 3032 3037 3038 3026 3021 3027 3032 3033 3035 3036 3037 3040 3042 3045 3048 3051 3053 3056 3058 3061 3062
2896 2900 2903 2905 2908 2910 2912 2913 2914 2916 2919 2924 2928 2931 2935 2938 2942 2944 2947 2950 2953 2955 2957 2959 2962 2964 2966 2968 2970 2972 2974 2975 2977 2979 2980 2982 2983 2986 2988 2990 2992 2993 2995 2998 3000 3003 3004 3005 3007 3010 3013 3011 3009 3009 3010 3010 3012 3014 3017 3020 3022 3026 3029 3030 3033 3034 3027 3027 3033 3027 3021 3023 3027 3029 3031 3032 3033 3034 3037 3039 3042 3045 3048 3050 3052 3055 3057 3058
2894 2897 2900 2903 2906 2908 2910 2912 2913 2915 2918 2921 2925 2930 2933 2936 2939 2943 2946 2949 2952 2954 2956 2958 2960 2962 2964 2967 2969 2971 2972 2974 2976 2977 2978 2979 2981 2983 2986 2988 2990 2991 2992 2995 2997 2998 2998 2998 2999 3001 3004 3005 3005 3006 3007 3007 3008 3010 3011 3014 3017 3020 3022 3024 3024 3020 3019 3026 3024 3018 3022 3026 3023 3024 3028 3027 3029 3032 3035 3037 3039 3041 3044 3047 3049 3051 3053 3055
2891 2894 2896 2899 2903 2906 2908 2910 2912 2915 2918 2920 2923 2927 2931 2934 2937 2942 2945 2948 2950 2953 2955 2957 2958 2960 2962 2965 2967 2969 2971 2973 2974 2975 2977 2978 2979 2982 2984 2986 2988 2989 2991 2993 2994 2995 2994 2993 2994 2996 2998 3001 3003 3004 3006 3006 3005 3006 3007 3009 3011 3014 3016 3017 3013 3012 3019 3022 3013 3013 3025 3024 3015 3018 3024 3024 3026 3029 3031 3033 3035 3038 3040 3043 3045 3047 3049 3051
2891 2894 2897 2899 2901 2903 2906 2908 2911 2914 2917 2920 2923 2927 2930 2933 2936 2940 2943 2946 2949 2951 2953 2955 2957 2959 2961 2964 2966 2968 2970 2971 2973 2974 2975 2976 2978 2980 2982 2984 2986 2987 2989 2990 2991 2992 2992 2992 2993 2995 2996 2998 3000 3001 3002 3002 3002 3003 3003 3004 3006 3009 3011 3010 3008 3010 3015 3011 3006 3014 3021 3015 3010 3014 3019 3022 3024 3025 3028 3030 3031 3033 3036 3038 3040 3042 3044 3045
2891 2894 2898 2900 2901 2903 2905 2908 2911 2914 2917 2920 2923 2926 2929 2932 2935 2938 2941 2944 2946 2949 2951 2953 2955 2958 2960 2962 2964 2966 2969 2971 2972 2973 2974 2975 2977 2978 2980 2982 2984 2985 2987 2988 2989 2990 2991 2991 2992 2994 2995 2995 2996 2998 2998 2998 2998 2999 3000 3001 3002 3003 3004 3005 3006 3008 3009 3005 3007 3015 3014 3009 3010 3013 3016 3021 3022 3022 3025 3027 3027 3029 3031 3032 3035 3037 3038 3039
2891 2894 2896 2899 2901 2904 2906 2908 2911 2914 2917 2920 2922 2925 2928 2931 2934 2937 2940 2942 2945 2947 2949 2952 2954 2956 2959 2961 2963 2965 2967 2970 2971 2972 2973 2974 2976 2977 2979 2980 2981 2984 2985 2986 2988 2989 2989 2990 2991 2992 2992 2992 2993 2995 2996 2996 2996 2996 2996 2997 2999 3000 3000 3001 3002 3004 3005 3004 3008 3013 3009 3006 3010 3012 3013 3016 3018 3019 3021 3021 3022 3024 3026 3028 3030 3032 3033 3035
2892 2894 2895 2897 2900 2903 2906 2908 2911 2914 2916 2919 2922 2924 2927 2930 2933 2936 2939 2941 2944 2946 2948 2950 2953 2955 2957 2959 2961 2963 2966 2967 2969 2971 2973 2974 2975 2976 2977 2979 2980 2982 2983 2985 2986 2986 2987 2988 2989 2990 2989 2989 2990 2993 2993 2993 2994 2992 2991 2992 2994 2996 2997 2998 2998 3000 3000 3001 3004 3006 3002 3000 3004 3007 3007 3009 3012 3013 3013 3015 3017 3020 3023 3025 3025 3026 3029 3030
2891 2893 2895 2897 2900 2903 2905 2908 2910 2913 2916 2918 2921 2924 2926 2929 2932 2935 2938 2940 2943 2945 2946 2949 2951 2954 2955 2957 2959 2962 2963 2965 2966 2969 2971 2973 2974 2975 2976 2977 2978 2980 2981 2982 2983 2984 2985 2986 2987 2988 2988 2987 2987 2988 2989 2991 2991 2987 2984 2986 2989 2991 2992 2994 2995 2996 2997 2997 2998 2996 2995 2996 3000 3001 3002 3004 3005 3006 3007 3010 3013 3016 3019 3020 3020 3021 3023 3025